﻿_id,日時,平均風速(m/s),平均風向,最大瞬間風速(m/s),最大風速時風向,気温(℃),湿度(%),10分間移動積算雨量(mm),1時間移動積算雨量(mm),日雨量(mm),累計雨量(mm)
1,2021-06-14T00:00:00,0.6,南,1.9,南南東,20,96.6,0,0,10.5,10.5
2,2021-06-14T00:01:00,0.7,南,1.9,南南東,20,96.5,0,0,0,10.5
3,2021-06-14T00:02:00,0.8,南,1.9,南南東,19.9,96.4,0,0,0,10.5
4,2021-06-14T00:03:00,0.9,南,1.9,南南東,19.9,96.4,0,0,0,10.5
5,2021-06-14T00:04:00,1,南南東,2.2,南東,19.9,96.4,0,0,0,10.5
6,2021-06-14T00:05:00,1.1,南,2.2,南東,19.9,96.4,0,0,0,10.5
7,2021-06-14T00:06:00,1.1,南,2.2,南東,19.9,96.4,0,0,0,10.5
8,2021-06-14T00:07:00,1,南,2.2,南東,19.9,96.4,0,0,0,10.5
9,2021-06-14T00:08:00,1,南,2.2,南東,19.9,96.4,0,0,0,10.5
10,2021-06-14T00:09:00,0.9,南,2.2,南東,19.9,96.4,0,0,0,10.5
11,2021-06-14T00:10:00,0.9,南,2.2,南東,19.9,96.4,0,0,0,10.5
12,2021-06-14T00:11:00,0.8,南,2.2,南東,20,96.6,0.5,0.5,0.5,11
13,2021-06-14T00:12:00,0.7,南,2.2,南東,20.1,96.8,0.5,0.5,0.5,11
14,2021-06-14T00:13:00,0.6,南,2.2,南東,20,96.6,0.5,0.5,0.5,11
15,2021-06-14T00:14:00,0.6,南南東,1.7,東南東,19.9,96.3,0.5,0.5,0.5,11
16,2021-06-14T00:15:00,0.7,南南東,2.3,南東,19.9,96.4,0.5,0.5,0.5,11
17,2021-06-14T00:16:00,0.7,南南東,2.3,南東,19.8,96.1,0.5,0.5,0.5,11
18,2021-06-14T00:17:00,0.7,南東,2.3,南東,19.8,96.1,0.5,0.5,0.5,11
19,2021-06-14T00:18:00,0.8,南東,2.6,東南東,19.8,96.1,1,1,1,11.5
20,2021-06-14T00:19:00,0.8,南東,2.6,東南東,19.8,96.1,1,1,1,11.5
21,2021-06-14T00:20:00,0.9,南東,2.6,東南東,19.8,96.2,1,1,1,11.5
22,2021-06-14T00:21:00,0.9,南東,2.6,東南東,19.8,96.1,0.5,1,1,11.5
23,2021-06-14T00:22:00,1,南東,2.6,東南東,19.7,96.1,0.5,1,1,11.5
24,2021-06-14T00:23:00,1,南東,2.6,東南東,19.8,96.1,0.5,1,1,11.5
25,2021-06-14T00:24:00,0.9,南南東,2.6,東南東,19.7,96,0.5,1,1,11.5
26,2021-06-14T00:25:00,0.9,南南東,2.6,東南東,19.7,95.9,1,1.5,1.5,12
27,2021-06-14T00:26:00,0.8,南南東,2.6,東南東,19.6,95.9,1,1.5,1.5,12
28,2021-06-14T00:27:00,0.7,南,2.6,東南東,19.6,96,1,1.5,1.5,12
29,2021-06-14T00:28:00,0.6,南,2.1,南東,19.6,96.1,0.5,1.5,1.5,12
30,2021-06-14T00:29:00,0.5,南南西,2.1,南東,19.6,96.1,0.5,1.5,1.5,12
31,2021-06-14T00:30:00,0.5,南西,2.1,南東,19.6,96.3,0.5,1.5,1.5,12
32,2021-06-14T00:31:00,0.5,西南西,1.8,南南東,19.6,96.1,0.5,1.5,1.5,12
33,2021-06-14T00:32:00,0.4,西南西,1.7,南西,19.6,96.2,0.5,1.5,1.5,12
34,2021-06-14T00:33:00,0.4,西南西,1.7,南西,19.6,96.3,0.5,1.5,1.5,12
35,2021-06-14T00:34:00,0.4,西,1.7,南西,19.7,96.5,0.5,1.5,1.5,12
36,2021-06-14T00:35:00,0.4,西,1.7,南西,19.7,96.6,0.5,2,2,12.5
37,2021-06-14T00:36:00,0.4,西,1.7,南西,19.8,96.7,0.5,2,2,12.5
38,2021-06-14T00:37:00,0.5,西北西,1.7,南西,19.8,96.7,0.5,2,2,12.5
39,2021-06-14T00:38:00,0.6,北西,2,北北東,19.8,96.6,0.5,2,2,12.5
40,2021-06-14T00:39:00,0.8,北北西,3.1,北北東,19.8,96.6,1,2.5,2.5,13
41,2021-06-14T00:40:00,1,北,3.1,北北東,19.7,96.5,1,2.5,2.5,13
42,2021-06-14T00:41:00,1.1,北北東,3.1,北北東,19.7,96.5,1,2.5,2.5,13
43,2021-06-14T00:42:00,1.1,北北東,3.1,北北東,19.7,96.4,1,2.5,2.5,13
44,2021-06-14T00:43:00,1.1,北北東,3.1,北北東,19.7,96.6,1,2.5,2.5,13
45,2021-06-14T00:44:00,1.1,北,3.1,北北東,19.7,96.6,1.5,3,3,13.5
46,2021-06-14T00:45:00,1.1,北,3.1,北北東,19.6,96.6,1,3,3,13.5
47,2021-06-14T00:46:00,1.1,北北西,3.1,北北東,19.6,96.6,1,3,3,13.5
48,2021-06-14T00:47:00,1,北北西,3.1,北北東,19.5,96.4,1,3,3,13.5
49,2021-06-14T00:48:00,0.9,北西,3.1,北北東,19.5,96.4,1,3,3,13.5
50,2021-06-14T00:49:00,0.7,西北西,3,北東,19.5,96.6,0.5,3,3,13.5
51,2021-06-14T00:50:00,0.5,西北西,2.3,北東,19.5,96.6,0.5,3,3,13.5
52,2021-06-14T00:51:00,0.4,西北西,1.9,北北東,19.5,96.7,0.5,3,3,13.5
53,2021-06-14T00:52:00,0.4,西北西,1.4,南西,19.6,96.8,0.5,3,3,13.5
54,2021-06-14T00:53:00,0.4,西北西,1.4,南西,19.6,96.8,0.5,3,3,13.5
55,2021-06-14T00:54:00,0.4,西北西,1.4,南西,19.6,96.8,0,3,3,13.5
56,2021-06-14T00:55:00,0.5,北西,1.4,南西,19.5,96.8,0,3,3,13.5
57,2021-06-14T00:56:00,0.6,北西,1.4,南西,19.6,96.8,0,3,3,13.5
58,2021-06-14T00:57:00,0.7,北北西,1.5,北東,19.6,96.8,0,3,3,13.5
59,2021-06-14T00:58:00,0.8,北北西,1.8,北東,19.7,97,0,3,3,13.5
60,2021-06-14T00:59:00,0.9,北,1.9,北東,19.8,97.1,0,3,3,13.5
61,2021-06-14T01:00:00,1.1,北北東,2.5,東北東,19.7,97,0,3,3,13.5
62,2021-06-14T01:01:00,1.3,北北東,3,東北東,19.7,96.9,0,3,3,13.5
63,2021-06-14T01:02:00,1.4,北東,3,東北東,19.7,96.8,0.5,3.5,3.5,14
64,2021-06-14T01:03:00,1.6,北東,3,東北東,19.7,96.9,0.5,3.5,3.5,14
65,2021-06-14T01:04:00,1.7,東北東,3,東北東,19.7,96.9,0.5,3.5,3.5,14
66,2021-06-14T01:05:00,1.7,東北東,3,東北東,19.6,96.8,0.5,3.5,3.5,14
67,2021-06-14T01:06:00,1.7,東北東,3,東北東,19.6,96.8,0.5,3.5,3.5,14
68,2021-06-14T01:07:00,1.7,東,3,東北東,19.5,96.7,0.5,3.5,3.5,14
69,2021-06-14T01:08:00,1.6,東,3,東北東,19.5,96.6,0.5,3.5,3.5,14
70,2021-06-14T01:09:00,1.5,東南東,3,東北東,19.4,96.6,0.5,3.5,3.5,14
71,2021-06-14T01:10:00,1.3,東南東,3,東北東,19.4,96.6,0.5,3.5,3.5,14
72,2021-06-14T01:11:00,1.2,南東,2.9,東北東,19.4,96.7,0.5,3,3.5,14
73,2021-06-14T01:12:00,1,南南東,2.8,東北東,19.4,96.8,0,3,3.5,14
74,2021-06-14T01:13:00,0.9,南南東,2.7,東,19.4,96.8,0,3,3.5,14
75,2021-06-14T01:14:00,0.7,南,1.9,東,19.4,96.9,0,3,3.5,14
76,2021-06-14T01:15:00,0.6,南南西,1.6,東南東,19.4,96.9,0,3,3.5,14
77,2021-06-14T01:16:00,0.6,南南西,1.6,東南東,19.4,96.9,0,3,3.5,14
78,2021-06-14T01:17:00,0.7,南南西,2.1,南西,19.5,96.9,0,3,3.5,14
79,2021-06-14T01:18:00,0.7,南西,2.4,南西,19.5,97,0,2.5,3.5,14
80,2021-06-14T01:19:00,0.9,南西,2.7,西南西,19.5,97,0,2.5,3.5,14
81,2021-06-14T01:20:00,1,南西,2.7,西南西,19.5,97,0,2.5,3.5,14
82,2021-06-14T01:21:00,1.1,南西,3.4,南西,19.4,96.9,0,2.5,3.5,14
83,2021-06-14T01:22:00,1.3,南西,3.4,南西,19.4,96.8,0,2.5,3.5,14
84,2021-06-14T01:23:00,1.4,南西,3.4,南西,19.4,96.8,0,2.5,3.5,14
85,2021-06-14T01:24:00,1.5,南西,3.4,南西,19.4,96.8,0,2.5,3.5,14
86,2021-06-14T01:25:00,1.6,南西,3.4,南西,19.4,96.9,0,2,3.5,14
87,2021-06-14T01:26:00,1.6,西南西,3.4,南西,19.4,96.9,0,2,3.5,14
88,2021-06-14T01:27:00,1.6,西南西,3.4,南西,19.3,96.9,0,2,3.5,14
89,2021-06-14T01:28:00,1.5,西南西,3.4,南西,19.3,96.8,0,2,3.5,14
90,2021-06-14T01:29:00,1.3,南西,3.4,南西,19.4,96.9,0,2,3.5,14
91,2021-06-14T01:30:00,1.2,南西,3.4,南西,19.5,97.1,0,2,3.5,14
92,2021-06-14T01:31:00,1.1,南南西,3.2,南西,19.5,97.2,0,2,3.5,14
93,2021-06-14T01:32:00,1,南南西,3.2,南西,19.5,97.1,0,2,3.5,14
94,2021-06-14T01:33:00,1,南南西,2.6,西南西,19.5,97,0,2,3.5,14
95,2021-06-14T01:34:00,0.9,南,2,南南東,19.5,96.9,0,2,3.5,14
96,2021-06-14T01:35:00,0.9,南,2,南南東,19.5,96.9,0,1.5,3.5,14
97,2021-06-14T01:36:00,0.9,南,2,南南東,19.5,97,0,1.5,3.5,14
98,2021-06-14T01:37:00,0.9,南南東,2,南南東,19.5,97,0,1.5,3.5,14
99,2021-06-14T01:38:00,1,南南東,2.2,南南東,19.5,97,0,1.5,3.5,14
100,2021-06-14T01:39:00,1.2,南南東,2.6,南東,19.6,97,0,1,3.5,14
101,2021-06-14T01:40:00,1.3,南南東,2.9,南南東,19.5,97,0,1,3.5,14
102,2021-06-14T01:41:00,1.3,南南東,2.9,南南東,19.5,96.9,0,1,3.5,14
103,2021-06-14T01:42:00,1.3,南南東,2.9,南南東,19.5,96.9,0,1,3.5,14
104,2021-06-14T01:43:00,1.2,南南東,2.9,南南東,19.5,96.8,0,1,3.5,14
105,2021-06-14T01:44:00,1.2,南,2.9,南南東,19.5,96.9,0,0.5,3.5,14
106,2021-06-14T01:45:00,1.2,南,2.9,南南東,19.5,97,0,0.5,3.5,14
107,2021-06-14T01:46:00,1.1,南,2.9,南南東,19.5,96.9,0,0.5,3.5,14
108,2021-06-14T01:47:00,1,南南西,2.9,南南東,19.5,96.9,0,0.5,3.5,14
109,2021-06-14T01:48:00,0.9,南南西,2.9,南南東,19.5,96.9,0,0.5,3.5,14
110,2021-06-14T01:49:00,0.8,南西,2.9,南南東,19.5,96.9,0,0.5,3.5,14
111,2021-06-14T01:50:00,0.6,南西,2.7,南東,19.5,97,0,0.5,3.5,14
112,2021-06-14T01:51:00,0.5,西南西,1.3,南,19.5,96.9,0,0.5,3.5,14
113,2021-06-14T01:52:00,0.4,西南西,1.2,南南西,19.5,96.9,0,0.5,3.5,14
114,2021-06-14T01:53:00,0.4,西南西,1.1,西,19.4,96.9,0,0.5,3.5,14
115,2021-06-14T01:54:00,0.4,西,1.1,西,19.4,96.8,0,0.5,3.5,14
116,2021-06-14T01:55:00,0.5,西,1.1,西,19.4,96.8,0,0.5,3.5,14
117,2021-06-14T01:56:00,0.5,西,1.1,西,19.4,96.9,0,0.5,3.5,14
118,2021-06-14T01:57:00,0.4,西,1.1,西,19.4,96.9,0,0.5,3.5,14
119,2021-06-14T01:58:00,0.4,西南西,1.1,西,19.4,96.9,0,0.5,3.5,14
120,2021-06-14T01:59:00,0.5,西南西,1.1,西,19.6,97,0,0.5,3.5,14
121,2021-06-14T02:00:00,0.5,南西,1.1,西,19.6,97.1,0,0.5,3.5,14
122,2021-06-14T02:01:00,0.5,南南西,1,東南東,19.7,97.2,0,0.5,3.5,14
123,2021-06-14T02:02:00,0.6,南,1.1,東南東,19.6,97.1,0,0,3.5,14
124,2021-06-14T02:03:00,0.6,南南東,1.7,東,19.6,97,0,0,3.5,14
125,2021-06-14T02:04:00,0.7,南東,2,東北東,19.7,97.1,0,0,3.5,14
126,2021-06-14T02:05:00,0.9,南東,2.3,東北東,19.7,97,0,0,3.5,14
127,2021-06-14T02:06:00,1,東南東,2.3,東北東,19.8,97.1,0,0,3.5,14
128,2021-06-14T02:07:00,1.1,東,2.4,北東,19.7,97.1,0,0,3.5,14
129,2021-06-14T02:08:00,1.2,東,2.4,北東,19.7,96.9,0,0,3.5,14
130,2021-06-14T02:09:00,1.3,東北東,2.4,北東,19.7,96.9,0,0,3.5,14
131,2021-06-14T02:10:00,1.4,東北東,2.4,北東,19.6,96.7,0,0,3.5,14
132,2021-06-14T02:11:00,1.5,東北東,2.4,北東,19.5,96.6,0,0,3.5,14
133,2021-06-14T02:12:00,1.5,北東,2.4,北東,19.5,96.6,0,0,3.5,14
134,2021-06-14T02:13:00,1.5,北東,2.4,北東,19.6,96.6,0,0,3.5,14
135,2021-06-14T02:14:00,1.4,北北東,2.4,北東,19.6,96.6,0,0,3.5,14
136,2021-06-14T02:15:00,1.2,北北東,2.4,北東,19.5,96.7,0,0,3.5,14
137,2021-06-14T02:16:00,1.1,北,2.4,北東,19.5,96.5,0,0,3.5,14
138,2021-06-14T02:17:00,1,北,2.3,北東,19.5,96.6,0,0,3.5,14
139,2021-06-14T02:18:00,1,北北西,2.3,北東,19.4,96.6,0,0,3.5,14
140,2021-06-14T02:19:00,0.9,北西,2.3,北東,19.4,96.5,0,0,3.5,14
141,2021-06-14T02:20:00,0.9,西北西,2.3,南西,19.4,96.6,0,0,3.5,14
142,2021-06-14T02:21:00,0.8,西北西,2.3,南西,19.4,96.7,0,0,3.5,14
143,2021-06-14T02:22:00,0.8,西,2.3,南西,19.4,96.6,0,0,3.5,14
144,2021-06-14T02:23:00,0.8,西,2.3,南西,19.4,96.7,0,0,3.5,14
145,2021-06-14T02:24:00,0.8,西南西,2.3,南西,19.4,96.7,0,0,3.5,14
146,2021-06-14T02:25:00,0.8,西南西,2.3,南西,19.5,96.7,0,0,3.5,14
147,2021-06-14T02:26:00,0.8,西南西,2.3,南西,19.4,96.7,0,0,3.5,14
148,2021-06-14T02:27:00,0.8,西南西,2.3,南西,19.4,96.7,0,0,3.5,14
149,2021-06-14T02:28:00,0.7,南西,2.3,南西,19.5,96.8,0,0,3.5,14
150,2021-06-14T02:29:00,0.7,南西,2.1,南西,19.5,96.8,0,0,3.5,14
151,2021-06-14T02:30:00,0.6,南西,2.1,南西,19.6,96.8,0,0,3.5,14
152,2021-06-14T02:31:00,0.6,南南西,2.1,南西,19.6,96.9,0,0,3.5,14
153,2021-06-14T02:32:00,0.6,南南西,1.7,南東,19.6,96.8,0,0,3.5,14
154,2021-06-14T02:33:00,0.7,南,2,南南東,19.5,96.7,0,0,3.5,14
155,2021-06-14T02:34:00,0.7,南,2,南南東,19.6,96.7,0,0,3.5,14
156,2021-06-14T02:35:00,0.8,南南東,2,南南東,19.5,96.7,0,0,3.5,14
157,2021-06-14T02:36:00,0.9,南南東,2.3,南南東,19.5,96.7,0,0,3.5,14
158,2021-06-14T02:37:00,1.1,南南東,2.8,南南東,19.5,96.6,0,0,3.5,14
159,2021-06-14T02:38:00,1.2,南南東,2.8,南南東,19.5,96.6,0,0,3.5,14
160,2021-06-14T02:39:00,1.3,南南東,2.9,南南東,19.5,96.6,0,0,3.5,14
161,2021-06-14T02:40:00,1.4,南南東,2.9,南南東,19.5,96.6,0,0,3.5,14
162,2021-06-14T02:41:00,1.5,南南東,3.3,南南東,19.5,96.6,0,0,3.5,14
163,2021-06-14T02:42:00,1.6,南南東,3.3,南南東,19.4,96.6,0,0,3.5,14
164,2021-06-14T02:43:00,1.7,南南東,3.3,南南東,19.4,96.5,0,0,3.5,14
165,2021-06-14T02:44:00,1.7,南南東,3.3,南南東,19.5,96.5,0,0,3.5,14
166,2021-06-14T02:45:00,1.7,南南東,3.3,南南東,19.5,96.5,0,0,3.5,14
167,2021-06-14T02:46:00,1.6,南南東,3.3,南南東,19.5,96.5,0,0,3.5,14
168,2021-06-14T02:47:00,1.6,南南東,3.3,南南東,19.5,96.5,0,0,3.5,14
169,2021-06-14T02:48:00,1.5,南南東,3.3,南南東,19.4,96.3,0,0,3.5,14
170,2021-06-14T02:49:00,1.4,南南東,3.3,南南東,19.4,96.3,0,0,3.5,14
171,2021-06-14T02:50:00,1.3,南南東,3.3,南南東,19.4,96.3,0,0,3.5,14
172,2021-06-14T02:51:00,1.2,南南東,3.3,南東,19.4,96.2,0,0,3.5,14
173,2021-06-14T02:52:00,1.1,南南東,3,南南東,19.4,96.2,0,0,3.5,14
174,2021-06-14T02:53:00,1.1,南南東,2.7,南南東,19.4,96.1,0,0,3.5,14
175,2021-06-14T02:54:00,1.1,南南東,2.7,南南東,19.3,96.1,0,0,3.5,14
176,2021-06-14T02:55:00,1.1,南南東,2.7,南南東,19.3,96,0,0,3.5,14
177,2021-06-14T02:56:00,1,南南東,2.2,南東,19.3,96,0,0,3.5,14
178,2021-06-14T02:57:00,1,南,2.2,南東,19.3,96.1,0,0,3.5,14
179,2021-06-14T02:58:00,1,南,2.2,南東,19.3,96.1,0,0,3.5,14
180,2021-06-14T02:59:00,1,南,2.1,南南東,19.2,96.1,0,0,3.5,14
181,2021-06-14T03:00:00,0.9,南南西,2.1,南南東,19.2,96,0,0,3.5,14
182,2021-06-14T03:01:00,0.9,南南西,2.1,南南東,19.2,96.2,0,0,3.5,14
183,2021-06-14T03:02:00,0.8,南西,2.1,南南東,19.2,96.2,0,0,3.5,14
184,2021-06-14T03:03:00,0.7,西南西,2,南南東,19.3,96.4,0,0,3.5,14
185,2021-06-14T03:04:00,0.6,西南西,2,南南東,19.2,96.2,0,0,3.5,14
186,2021-06-14T03:05:00,0.5,西,1.8,西南西,19.1,96.2,0,0,3.5,14
187,2021-06-14T03:06:00,0.5,西,1.8,西南西,19.1,96.2,0,0,3.5,14
188,2021-06-14T03:07:00,0.5,西,1.8,西南西,19.1,96.2,0,0,3.5,14
189,2021-06-14T03:08:00,0.5,西南西,1.8,西南西,19.1,96.3,0,0,3.5,14
190,2021-06-14T03:09:00,0.5,西南西,1.8,西南西,19.1,96.3,0,0,3.5,14
191,2021-06-14T03:10:00,0.5,西南西,1.2,西南西,19.1,96.4,0,0,3.5,14
192,2021-06-14T03:11:00,0.5,西南西,1.2,西南西,19.1,96.4,0,0,3.5,14
193,2021-06-14T03:12:00,0.6,南西,1.2,西南西,19.1,96.4,0,0,3.5,14
194,2021-06-14T03:13:00,0.6,南西,1.2,西南西,19.1,96.4,0,0,3.5,14
195,2021-06-14T03:14:00,0.6,南西,1.2,西南西,19.2,96.6,0,0,3.5,14
196,2021-06-14T03:15:00,0.6,南西,1.2,西南西,19.2,96.6,0,0,3.5,14
197,2021-06-14T03:16:00,0.6,南西,1.2,西南西,19.2,96.5,0,0,3.5,14
198,2021-06-14T03:17:00,0.5,南西,1.2,西南西,19.1,96.5,0,0,3.5,14
199,2021-06-14T03:18:00,0.5,西南西,1.2,西南西,19,96.4,0,0,3.5,14
200,2021-06-14T03:19:00,0.5,西南西,1.2,南南西,19.1,96.6,0,0,3.5,14
201,2021-06-14T03:20:00,0.4,西,1.2,南南西,19.1,96.7,0,0,3.5,14
202,2021-06-14T03:21:00,0.4,西北西,1.2,南南西,19.2,96.7,0,0,3.5,14
203,2021-06-14T03:22:00,0.4,西北西,1.2,南南西,19.2,96.8,0,0,3.5,14
204,2021-06-14T03:23:00,0.4,北西,1.4,北,19.2,96.7,0,0,3.5,14
205,2021-06-14T03:24:00,0.5,北北西,1.4,北,19.1,96.6,0,0,3.5,14
206,2021-06-14T03:25:00,0.5,北北西,1.4,北,19.1,96.7,0,0,3.5,14
207,2021-06-14T03:26:00,0.5,北北西,1.4,北,19.1,96.7,0,0,3.5,14
208,2021-06-14T03:27:00,0.5,北北西,1.4,北,19.1,96.7,0,0,3.5,14
209,2021-06-14T03:28:00,0.6,北西,1.4,北,19,96.7,0,0,3.5,14
210,2021-06-14T03:29:00,0.6,北西,1.4,北,19,96.7,0,0,3.5,14
211,2021-06-14T03:30:00,0.6,西北西,1.4,北,19,96.6,0,0,3.5,14
212,2021-06-14T03:31:00,0.7,西北西,1.6,西南西,19,96.7,0,0,3.5,14
213,2021-06-14T03:32:00,0.7,西,1.6,西南西,19,96.7,0,0,3.5,14
214,2021-06-14T03:33:00,0.7,西南西,1.6,西南西,19,96.7,0,0,3.5,14
215,2021-06-14T03:34:00,0.7,西南西,1.6,西南西,19,96.8,0,0,3.5,14
216,2021-06-14T03:35:00,0.8,南西,1.6,西南西,19,96.8,0,0,3.5,14
217,2021-06-14T03:36:00,0.8,南西,1.6,西南西,19,96.8,0,0,3.5,14
218,2021-06-14T03:37:00,0.8,南西,1.6,西南西,19.1,96.9,0,0,3.5,14
219,2021-06-14T03:38:00,0.9,南西,1.6,西南西,19.1,96.9,0,0,3.5,14
220,2021-06-14T03:39:00,0.9,南南西,1.6,西南西,19.1,96.9,0,0,3.5,14
221,2021-06-14T03:40:00,0.8,南南西,1.6,西南西,19.1,96.9,0,0,3.5,14
222,2021-06-14T03:41:00,0.8,南南西,1.4,南,19.1,96.9,0,0,3.5,14
223,2021-06-14T03:42:00,0.7,南,1.4,南,19,96.8,0,0,3.5,14
224,2021-06-14T03:43:00,0.6,南南西,1.4,南,19,96.7,0,0,3.5,14
225,2021-06-14T03:44:00,0.6,南南西,1.4,南,18.9,96.7,0,0,3.5,14
226,2021-06-14T03:45:00,0.6,南南西,1.4,南,19,96.7,0,0,3.5,14
227,2021-06-14T03:46:00,0.6,南南西,1.5,南西,18.9,96.7,0,0,3.5,14
228,2021-06-14T03:47:00,0.6,南南西,1.6,南西,18.9,96.8,0,0,3.5,14
229,2021-06-14T03:48:00,0.6,南南西,1.6,南西,18.9,96.8,0,0,3.5,14
230,2021-06-14T03:49:00,0.7,南西,1.6,南西,19,96.8,0,0,3.5,14
231,2021-06-14T03:50:00,0.7,南西,1.6,南西,19,96.8,0,0,3.5,14
232,2021-06-14T03:51:00,0.8,南西,1.6,南西,19,96.9,0,0,3.5,14
233,2021-06-14T03:52:00,0.8,南西,1.6,南西,19,96.9,0,0,3.5,14
234,2021-06-14T03:53:00,0.9,南西,1.6,南西,19.1,96.9,0,0,3.5,14
235,2021-06-14T03:54:00,0.9,南南西,1.6,南西,19.1,96.8,0,0,3.5,14
236,2021-06-14T03:55:00,0.9,南南西,2.2,南南東,19.2,96.9,0,0,3.5,14
237,2021-06-14T03:56:00,1,南,2.5,南東,19.1,96.8,0,0,3.5,14
238,2021-06-14T03:57:00,0.9,南,2.5,南東,19.2,96.7,0,0,3.5,14
239,2021-06-14T03:58:00,0.9,南,2.5,南東,19.2,96.7,0,0,3.5,14
240,2021-06-14T03:59:00,0.9,南,2.5,南東,19.2,96.6,0,0,3.5,14
241,2021-06-14T04:00:00,0.8,南,2.5,南東,19.2,96.4,0,0,3.5,14
242,2021-06-14T04:01:00,0.8,南,2.5,南東,19.1,96.4,0,0,3.5,14
243,2021-06-14T04:02:00,0.8,南,2.5,南東,19.1,96.3,0,0,3.5,14
244,2021-06-14T04:03:00,0.7,南南西,2.5,南東,19.1,96.3,0,0,3.5,14
245,2021-06-14T04:04:00,0.7,南南西,2.5,南東,19,96.3,0,0,3.5,14
246,2021-06-14T04:05:00,0.6,南西,2.5,南東,19.1,96.3,0,0,3.5,14
247,2021-06-14T04:06:00,0.6,西南西,1.5,北,19.1,96.4,0,0,3.5,14
248,2021-06-14T04:07:00,0.7,西北西,1.5,北,19.1,96.3,0,0,3.5,14
249,2021-06-14T04:08:00,0.7,北西,1.5,北,19.1,96.4,0,0,3.5,14
250,2021-06-14T04:09:00,0.7,北北西,1.5,北,19.1,96.4,0,0,3.5,14
251,2021-06-14T04:10:00,0.7,北,1.5,北,19,96.4,0,0,3.5,14
252,2021-06-14T04:11:00,0.7,北,1.5,北,19,96.2,0,0,3.5,14
253,2021-06-14T04:12:00,0.7,北,1.5,北,19,96.3,0,0,3.5,14
254,2021-06-14T04:13:00,0.7,北,1.5,北,18.9,96.3,0,0,3.5,14
255,2021-06-14T04:14:00,0.7,北北西,1.5,北,18.9,96.2,0,0,3.5,14
256,2021-06-14T04:15:00,0.7,北北西,1.5,北,18.9,96.3,0,0,3.5,14
257,2021-06-14T04:16:00,0.6,北北西,1.5,北東,19,96.5,0,0,3.5,14
258,2021-06-14T04:17:00,0.6,北西,1.2,北北東,18.9,96.5,0,0,3.5,14
259,2021-06-14T04:18:00,0.5,北西,1.2,北北東,19,96.6,0,0,3.5,14
260,2021-06-14T04:19:00,0.4,北西,0.9,北北西,19,96.7,0,0,3.5,14
261,2021-06-14T04:20:00,0.4,北西,0.9,北北西,18.9,96.5,0,0,3.5,14
262,2021-06-14T04:21:00,0.4,北西,0.9,北北西,18.9,96.4,0,0,3.5,14
263,2021-06-14T04:22:00,0.5,北西,1,北北西,18.9,96.5,0,0,3.5,14
264,2021-06-14T04:23:00,0.5,北西,1,北北西,18.9,96.5,0,0,3.5,14
265,2021-06-14T04:24:00,0.5,北北西,1,北北西,18.9,96.6,0,0,3.5,14
266,2021-06-14T04:25:00,0.5,北北西,1,北北西,18.8,96.5,0,0,3.5,14
267,2021-06-14T04:26:00,0.5,北西,1,北北西,18.9,96.6,0,0,3.5,14
268,2021-06-14T04:27:00,0.5,北西,1,北北西,18.8,96.6,0,0,3.5,14
269,2021-06-14T04:28:00,0.5,西北西,1,北北西,18.9,96.6,0,0,3.5,14
270,2021-06-14T04:29:00,0.5,西北西,1.3,南西,18.8,96.6,0,0,3.5,14
271,2021-06-14T04:30:00,0.6,西,1.3,南西,18.8,96.6,0,0,3.5,14
272,2021-06-14T04:31:00,0.6,西,1.3,南西,18.8,96.6,0,0,3.5,14
273,2021-06-14T04:32:00,0.5,西南西,1.3,南西,18.8,96.7,0,0,3.5,14
274,2021-06-14T04:33:00,0.5,西南西,1.3,南西,18.9,96.8,0,0,3.5,14
275,2021-06-14T04:34:00,0.5,西南西,1.3,南西,18.8,96.7,0,0,3.5,14
276,2021-06-14T04:35:00,0.5,南西,1.3,南西,18.8,96.7,0,0,3.5,14
277,2021-06-14T04:36:00,0.5,南西,1.3,南西,18.8,96.7,0,0,3.5,14
278,2021-06-14T04:37:00,0.5,南西,1.3,南西,18.8,96.8,0,0,3.5,14
279,2021-06-14T04:38:00,0.4,南西,1.3,南西,18.7,96.7,0,0,3.5,14
280,2021-06-14T04:39:00,0.4,西南西,1.1,南西,18.7,96.6,0,0,3.5,14
281,2021-06-14T04:40:00,0.4,西南西,0.9,南西,18.7,96.7,0,0,3.5,14
282,2021-06-14T04:41:00,0.3,西,0.9,南西,18.8,96.8,0,0,3.5,14
283,2021-06-14T04:42:00,0.3,西,0.8,西南西,18.8,96.9,0,0,3.5,14
284,2021-06-14T04:43:00,0.4,北西,0.8,北北東,18.9,97,0,0,3.5,14
285,2021-06-14T04:44:00,0.4,北北西,0.8,北北東,18.8,97,0,0,3.5,14
286,2021-06-14T04:45:00,0.3,北北西,0.8,北北東,18.6,96.7,0,0,3.5,14
287,2021-06-14T04:46:00,0.3,北,0.8,北北東,18.7,96.7,0,0,3.5,14
288,2021-06-14T04:47:00,0.3,北,0.8,北北東,18.7,96.8,0,0,3.5,14
289,2021-06-14T04:48:00,0.3,北北東,0.8,北北東,18.6,96.8,0,0,3.5,14
290,2021-06-14T04:49:00,0.3,北北東,0.8,北北東,18.7,96.8,0,0,3.5,14
291,2021-06-14T04:50:00,0.3,北東,0.8,北北東,18.7,96.8,0,0,3.5,14
292,2021-06-14T04:51:00,0.3,東北東,0.8,北北東,18.6,96.8,0,0,3.5,14
293,2021-06-14T04:52:00,0.2,静穏,0.8,北北東,18.6,96.8,0,0,3.5,14
294,2021-06-14T04:53:00,0.2,静穏,0.7,北北東,18.6,96.8,0,0,3.5,14
295,2021-06-14T04:54:00,0.1,静穏,0.5,東,18.6,96.8,0,0,3.5,14
296,2021-06-14T04:55:00,0.1,静穏,0.5,東,18.7,96.9,0,0,3.5,14
297,2021-06-14T04:56:00,0.2,静穏,0.7,東北東,18.7,97,0,0,3.5,14
298,2021-06-14T04:57:00,0.2,静穏,1,東北東,18.7,97.1,0,0,3.5,14
299,2021-06-14T04:58:00,0.3,東南東,1.6,東,18.6,97.1,0,0,3.5,14
300,2021-06-14T04:59:00,0.4,東南東,1.6,東,18.8,97,0,0,3.5,14
301,2021-06-14T05:00:00,0.4,東南東,1.6,東,18.7,97.1,0,0,3.5,14
302,2021-06-14T05:01:00,0.5,東,1.6,東,18.7,97,0,0,3.5,14
303,2021-06-14T05:02:00,0.5,東,1.6,東,18.8,97.1,0,0,3.5,14
304,2021-06-14T05:03:00,0.5,東,1.6,東,18.6,97,0,0,3.5,14
305,2021-06-14T05:04:00,0.5,東,1.6,東,18.5,96.7,0,0,3.5,14
306,2021-06-14T05:05:00,0.5,東,1.6,東,18.5,96.8,0,0,3.5,14
307,2021-06-14T05:06:00,0.5,東南東,1.6,東,18.5,96.8,0,0,3.5,14
308,2021-06-14T05:07:00,0.4,南南東,1.6,東,18.5,96.8,0,0,3.5,14
309,2021-06-14T05:08:00,0.4,南,1.4,東,18.5,97,0,0,3.5,14
310,2021-06-14T05:09:00,0.3,南西,0.9,西,18.6,97.1,0,0,3.5,14
311,2021-06-14T05:10:00,0.2,静穏,0.9,西,18.6,97.2,0,0,3.5,14
312,2021-06-14T05:11:00,0.2,静穏,0.9,西,18.6,97,0,0,3.5,14
313,2021-06-14T05:12:00,0.2,静穏,0.9,西,18.6,97.1,0,0,3.5,14
314,2021-06-14T05:13:00,0.2,静穏,0.9,西,18.6,97.1,0,0,3.5,14
315,2021-06-14T05:14:00,0.2,静穏,0.9,西,18.5,96.9,0,0,3.5,14
316,2021-06-14T05:15:00,0.1,静穏,0.9,西,18.4,96.9,0,0,3.5,14
317,2021-06-14T05:16:00,0.1,静穏,0.9,西,18.6,97.1,0,0,3.5,14
318,2021-06-14T05:17:00,0.1,静穏,0.6,西南西,18.6,97.1,0,0,3.5,14
319,2021-06-14T05:18:00,0.1,静穏,0.3,北東,18.5,97.1,0,0,3.5,14
320,2021-06-14T05:19:00,0.1,静穏,0.3,北東,18.5,97,0,0,3.5,14
321,2021-06-14T05:20:00,0.1,静穏,0.4,東北東,18.4,97,0,0,3.5,14
322,2021-06-14T05:21:00,0.1,静穏,0.4,東北東,18.5,97.1,0,0,3.5,14
323,2021-06-14T05:22:00,0.1,静穏,0.4,東北東,18.5,97.1,0,0,3.5,14
324,2021-06-14T05:23:00,0.1,静穏,0.4,東北東,18.6,97.2,0,0,3.5,14
325,2021-06-14T05:24:00,0.1,静穏,0.4,東北東,18.6,97.2,0,0,3.5,14
326,2021-06-14T05:25:00,0.2,静穏,0.5,北北西,18.5,97.2,0,0,3.5,14
327,2021-06-14T05:26:00,0.2,静穏,0.5,北北西,18.5,97.1,0,0,3.5,14
328,2021-06-14T05:27:00,0.2,静穏,0.5,北北西,18.5,97.1,0,0,3.5,14
329,2021-06-14T05:28:00,0.2,静穏,0.5,北北西,18.5,97.1,0,0,3.5,14
330,2021-06-14T05:29:00,0.2,静穏,0.5,北北西,18.4,97,0,0,3.5,14
331,2021-06-14T05:30:00,0.2,静穏,0.5,北北西,18.4,97,0,0,3.5,14
332,2021-06-14T05:31:00,0.2,静穏,0.5,北北西,18.5,97.1,0,0,3.5,14
333,2021-06-14T05:32:00,0.2,静穏,0.5,北北西,18.4,97.2,0,0,3.5,14
334,2021-06-14T05:33:00,0.2,静穏,0.5,北北西,18.5,97.2,0,0,3.5,14
335,2021-06-14T05:34:00,0.2,静穏,0.5,北北西,18.4,97.2,0,0,3.5,14
336,2021-06-14T05:35:00,0.2,静穏,0.5,西,18.4,97.2,0,0,3.5,14
337,2021-06-14T05:36:00,0.1,静穏,0.5,西,18.4,97.2,0,0,3.5,14
338,2021-06-14T05:37:00,0.2,静穏,0.5,西,18.5,97.2,0,0,3.5,14
339,2021-06-14T05:38:00,0.2,静穏,0.5,西,18.4,97.2,0,0,3.5,14
340,2021-06-14T05:39:00,0.2,静穏,0.7,西北西,18.5,97.2,0,0,3.5,14
341,2021-06-14T05:40:00,0.2,静穏,0.7,西北西,18.6,97.3,0,0,3.5,14
342,2021-06-14T05:41:00,0.3,西北西,0.7,西北西,18.6,97.4,0,0,3.5,14
343,2021-06-14T05:42:00,0.3,西北西,0.7,西北西,18.6,97.4,0,0,3.5,14
344,2021-06-14T05:43:00,0.3,北西,0.7,西北西,18.6,97.4,0,0,3.5,14
345,2021-06-14T05:44:00,0.3,西北西,0.7,西北西,18.7,97.5,0,0,3.5,14
346,2021-06-14T05:45:00,0.3,西北西,0.7,西北西,18.8,97.5,0,0,3.5,14
347,2021-06-14T05:46:00,0.3,西,0.7,西北西,18.9,97.6,0,0,3.5,14
348,2021-06-14T05:47:00,0.3,西,0.7,西北西,18.9,97.6,0,0,3.5,14
349,2021-06-14T05:48:00,0.3,西,0.7,西北西,19.1,97.6,0,0,3.5,14
350,2021-06-14T05:49:00,0.2,静穏,0.6,西,19.1,97.6,0,0,3.5,14
351,2021-06-14T05:50:00,0.2,静穏,0.6,西,19.1,97.6,0,0,3.5,14
352,2021-06-14T05:51:00,0.2,静穏,0.7,北北東,19,97.6,0,0,3.5,14
353,2021-06-14T05:52:00,0.2,静穏,0.7,北北東,19,97.4,0,0,3.5,14
354,2021-06-14T05:53:00,0.2,静穏,0.7,北北東,19.1,97.5,0,0,3.5,14
355,2021-06-14T05:54:00,0.2,静穏,0.7,北北東,19.2,97.6,0,0,3.5,14
356,2021-06-14T05:55:00,0.2,静穏,0.7,北北東,19.3,97.6,0,0,3.5,14
357,2021-06-14T05:56:00,0.2,静穏,0.7,北北東,19.4,97.7,0,0,3.5,14
358,2021-06-14T05:57:00,0.2,静穏,0.7,北北東,19.2,97.5,0,0,3.5,14
359,2021-06-14T05:58:00,0.3,北北東,0.7,北北東,19.3,97.5,0,0,3.5,14
360,2021-06-14T05:59:00,0.3,北北東,0.7,北北東,19.3,97.5,0,0,3.5,14
361,2021-06-14T06:00:00,0.3,北北東,0.8,北東,19.4,97.5,0,0,3.5,14
362,2021-06-14T06:01:00,0.4,北北東,1.3,北北東,19.5,97.5,0,0,3.5,14
363,2021-06-14T06:02:00,0.5,北北東,1.9,北北東,19.3,97.3,0,0,3.5,14
364,2021-06-14T06:03:00,0.6,北北東,2,北北東,19.2,97.1,0,0,3.5,14
365,2021-06-14T06:04:00,0.7,北北東,2,北北東,19.4,97.2,0,0,3.5,14
366,2021-06-14T06:05:00,0.9,北東,2,北北東,19.4,97.2,0,0,3.5,14
367,2021-06-14T06:06:00,1,北東,2,北北東,19.4,97.3,0,0,3.5,14
368,2021-06-14T06:07:00,1.1,北東,2,北北東,19.5,97.3,0,0,3.5,14
369,2021-06-14T06:08:00,1.1,北東,2,北北東,19.4,97.2,0,0,3.5,14
370,2021-06-14T06:09:00,1.2,北東,2.3,北北東,19.5,97.2,0,0,3.5,14
371,2021-06-14T06:10:00,1.3,北北東,2.3,北北東,19.5,97.1,0,0,3.5,14
372,2021-06-14T06:11:00,1.4,北北東,2.5,北北東,19.6,97.2,0,0,3.5,14
373,2021-06-14T06:12:00,1.4,北北東,2.5,北北東,19.5,97,0,0,3.5,14
374,2021-06-14T06:13:00,1.3,北北東,2.5,北北東,19.6,97,0,0,3.5,14
375,2021-06-14T06:14:00,1.4,北北東,2.5,北北東,19.6,96.9,0,0,3.5,14
376,2021-06-14T06:15:00,1.3,北北東,2.5,北北東,19.6,96.7,0,0,3.5,14
377,2021-06-14T06:16:00,1.4,北北東,2.5,北北東,19.5,96.6,0,0,3.5,14
378,2021-06-14T06:17:00,1.4,北北東,2.5,北北東,19.5,96.5,0,0,3.5,14
379,2021-06-14T06:18:00,1.4,北北東,2.5,北北東,19.7,96.6,0,0,3.5,14
380,2021-06-14T06:19:00,1.4,北北東,2.5,北北東,19.7,96.7,0,0,3.5,14
381,2021-06-14T06:20:00,1.4,北北東,2.5,北北東,19.8,96.5,0,0,3.5,14
382,2021-06-14T06:21:00,1.4,北北東,2.3,北,19.9,96.5,0,0,3.5,14
383,2021-06-14T06:22:00,1.3,北北東,2.3,北,20,96.4,0,0,3.5,14
384,2021-06-14T06:23:00,1.4,北北東,2.8,北北東,20,96.2,0,0,3.5,14
385,2021-06-14T06:24:00,1.4,北北東,2.8,北北東,20,96,0,0,3.5,14
386,2021-06-14T06:25:00,1.4,北北東,2.8,北北東,20.1,96,0,0,3.5,14
387,2021-06-14T06:26:00,1.4,北北東,2.8,北北東,20,95.6,0,0,3.5,14
388,2021-06-14T06:27:00,1.4,北北東,2.8,北北東,20.3,95.8,0,0,3.5,14
389,2021-06-14T06:28:00,1.4,北北東,2.8,北北東,20.3,95.7,0,0,3.5,14
390,2021-06-14T06:29:00,1.4,北北東,2.8,北北東,20.4,95.5,0,0,3.5,14
391,2021-06-14T06:30:00,1.4,北北東,2.8,北北東,20.2,94.6,0,0,3.5,14
392,2021-06-14T06:31:00,1.4,北北東,2.8,北北東,20.2,94,0,0,3.5,14
393,2021-06-14T06:32:00,1.3,北北東,2.8,北北東,20.3,94.1,0,0,3.5,14
394,2021-06-14T06:33:00,1.1,北北東,2.7,北北東,20.2,93.4,0,0,3.5,14
395,2021-06-14T06:34:00,1,北北東,2.7,北北東,20.2,93,0,0,3.5,14
396,2021-06-14T06:35:00,0.9,北,2.7,北北東,20.4,93.9,0,0,3.5,14
397,2021-06-14T06:36:00,0.7,北,2.1,北北東,20.4,93.3,0,0,3.5,14
398,2021-06-14T06:37:00,0.7,北,2.1,北北東,20.6,94.2,0,0,3.5,14
399,2021-06-14T06:38:00,0.6,北北西,2.1,北北東,20.6,93.8,0,0,3.5,14
400,2021-06-14T06:39:00,0.5,北西,2.1,北北東,20.6,93.7,0,0,3.5,14
401,2021-06-14T06:40:00,0.4,北西,1.9,北,20.5,93.8,0,0,3.5,14
402,2021-06-14T06:41:00,0.3,西北西,1.2,北北東,20.5,93.2,0,0,3.5,14
403,2021-06-14T06:42:00,0.3,西北西,0.9,北西,20.6,93.1,0,0,3.5,14